Content
SEND FEEDBACK

Daily
Averages
Monthly
Summary
United States of America

CHICAGO, ILLINOIS


Home > North America > United States > Illinois
Elevation: 674 feet     Latitude: 41 59N     Longitude: 087 54W

WEATHER
 
SELECT A DAY
Number of Records: 199,610;   Date Range: 7/8/95 - 12/19/14
 
SHARE

PRINT THIS DATA

[ ← Previous Day ]
WEATHER ALMANAC - JANUARY 16, 2013
[ Next Day → ]
[ °C ]   °F
Weather ElementAverageHighLow
Temperature28.9 °F36 °F (12:52 pm)14 °F (4:52 am)
Dewpoint19.4 °F26.6 °F (11:23 pm)10.9 °F (4:52 am)
Humidity69.1 %88 % (2:52 am)48 % (12:52 pm)
Barometer29.98 in30.12 in (1:52 am)29.83 in (2:22 pm)
Wind Speed8.9 mph20.7 mph (12:52 pm)
Wind Gust28.8 mph (12:52 pm)
Weather ElementAverage
Visibility9.5 mi
Wind DirectionSSW (197.9 °)

Weather ElementTotal
Precipitation---
Heating Degree Days40 (Base 65)
Averaged from 28 records on January 16, 2013
WEATHER CONDITIONS BREAKOUT
WIND DIRECTION BREAKOUT
WEATHER BY HOUR - JANUARY 16, 2013
[ °C ]   °F
Local TimeTemperatureDewpointHumidityBarometerVisibilityWind DirectionWind SpeedGust SpeedPrecipitationEventsConditions
1:52 AM17.1 °F12.0 °F81 %30.12 in8.0 miCalmClear
2:52 AM15.1 °F12.0 °F88 %30.10 in7.0 miSouth (170°)5.8 mphClear
3:52 AM15.1 °F12.0 °F88 %30.09 in7.0 miCalmClear
4:52 AM14.0 °F10.9 °F88 %30.04 in8.0 miSouth (170°)5.8 mphClear
5:52 AM18.0 °F12.9 °F81 %30.03 in9.0 miSouth (190°)4.6 mphClear
6:52 AM19.0 °F14.0 °F81 %30.02 in10.0 miSSW (200°)5.8 mphClear
7:52 AM21.0 °F12.9 °F71 %30.01 in10.0 miSW (230°)8.1 mphClear
8:52 AM23.0 °F12.0 °F63 %29.99 in10.0 miSSW (210°)13.8 mphClear
9:52 AM27.0 °F12.0 °F53 %29.96 in10.0 miSW (230°)12.7 mph20.7 mphClear
10:52 AM30.0 °F15.1 °F54 %29.93 in10.0 miSW (230°)16.1 mph23.0 mphClear
11:52 AM34.0 °F18.0 °F52 %29.89 in10.0 miSW (220°)16.1 mph24.2 mphClear
12:52 PM36.0 °F18.0 °F48 %29.85 in10.0 miWSW (240°)20.7 mph28.8 mphClear
1:52 PM36.0 °F19.0 °F50 %29.86 in10.0 miWSW (240°)17.3 mph25.3 mphOvercast
2:22 PM35.6 °F19.4 °F52 %29.83 in10.0 miSW (230°)16.1 mph24.2 mphOvercast
2:52 PM35.1 °F21.0 °F57 %29.87 in10.0 miWSW (240°)11.5 mph23.0 mphOvercast
3:52 PM35.1 °F21.9 °F59 %29.90 in10.0 miWSW (250°)11.5 mph23.0 mphOvercast
4:52 PM34.0 °F23.0 °F64 %29.95 in9.0 miWest (270°)15.0 mph24.2 mphOvercast
5:22 PM33.8 °F24.8 °F70 %29.93 in10.0 miWSW (250°)11.5 mph23.0 mphOvercast
5:52 PM34.0 °F23.0 °F64 %29.96 in10.0 miWSW (250°)12.7 mph20.7 mphOvercast
6:52 PM34.0 °F24.1 °F67 %29.99 in10.0 miWSW (240°)9.2 mphOvercast
7:02 PM33.8 °F24.8 °F70 %29.96 in10.0 miWSW (240°)9.2 mphOvercast
7:52 PM34.0 °F25.0 °F70 %30.02 in10.0 miWest (260°)6.9 mphOvercast
8:52 PM34.0 °F25.0 °F70 %30.03 in10.0 miWest (260°)5.8 mphOvercast
9:23 PM33.8 °F24.8 °F70 %30.01 in10.0 miWest (260°)5.8 mphMostly Cloudy
9:52 PM33.1 °F26.1 °F75 %30.04 in10.0 miWest (260°)3.5 mphOvercast
10:52 PM32.0 °F26.1 °F79 %30.04 in10.0 miSSW (200°)3.5 mphPartly Cloudy
11:23 PM30.2 °F26.6 °F86 %30.03 in9.0 miCalmMostly Cloudy
11:52 PM30.0 °F26.1 °F85 %30.06 in9.0 miCalmOvercast
Hourly data recorded from KPWK, located miles away from Chicago, Illinois







STORIES FROM OUR PARTNERS